{"data":{"norad_id":65476,"epoch":"2026-09-20T05:06:13.602816Z","epoch_age_seconds":136762,"freshness":"FRESH","line1":"1 65476U 25195U   26263.21265744  .00012513  00000+0  41422-3 0  9997","line2":"2 65476  53.1601  72.6793 0001316  88.3567 271.7585 15.31706858 59786","mean_motion":15.31706858,"eccentricity":0.0001316,"inclination_deg":53.1601,"raan_deg":72.6793,"arg_perigee_deg":88.3567,"mean_anomaly_deg":271.7585,"bstar":0.00041422,"rev_number":5978,"period_min":94.012767030387,"perigee_km":469.81824243855,"apogee_km":471.62086148302,"semimajor_km":6848.8565519608,"source":"CELESTRAK","updated_at":"2026-09-21T09:00:35.638505Z"}}